Regional Weather Roundup
Issued by NWS

Home | Current Version | Previous Version | Text Only | Print | Product List | Glossary Off
Versions: 1 2 3 4 5 6 7 8 9 10 11 12 13 14 15 16 17 18 19 20 21 22 23 24 25 26 27

000
ASUS45 KBOU 280510
RWRCO

WEATHER ROUNDUP FOR COLORADO
NATIONAL WEATHER SERVICE DENVER/BOULDER CO
1100 PM MDT TUE SEP 27 2016

NOTE: "FAIR" INDICATES FEW OR NO CLOUDS BELOW 12000 FEET WITH NO
SIGNIFICANT WEATHER AND/OR OBSTRUCTIONS TO VISIBILITY.

COZ001>005-013-030-031-280600-
...NORTHWEST COLORADO...

CITY           SKY/WX    TMP DP  RH WIND       PRES   REMARKS
CRAIG          FAIR      44  37  76 CALM      30.29R
HAYDEN         FAIR      52  32  46 E3        30.30R
MEEKER         FAIR      48  39  71 N5        30.29R
MOUNT WERNER   NOT AVBL
STEAMBOAT SPGS FAIR      49  34  56 CALM      30.32R
WALDEN           N/A     41  25  52 SE8       30.41R
$$

COZ006>008-011-280600-
...WEST CENTRAL VALLEYS...

CITY           SKY/WX    TMP DP  RH WIND       PRES   REMARKS
GRAND JUNCTION FAIR      59  35  40 CALM      30.17R
MONTROSE       FAIR      56  37  49 S9        30.26R
EAGLE          FAIR      54  30  40 E5        30.31R
RIFLE          FAIR      56  39  53 E6        30.22R
DELTA          NOT AVBL
NUCLA          FAIR      57  34  41 E9        30.28R
$$

COZ017>023-064>068-280600-
...SOUTHWEST COLORADO...

CITY           SKY/WX    TMP DP  RH WIND       PRES   REMARKS
DURANGO        FAIR      51  31  46 N5        30.28R
CORTEZ         FAIR      52  38  58 E6        30.24R
PAGOSA SPRINGS FAIR      47  31  53 CALM      30.36S
TELLURIDE      FAIR      50  37  62 SE5       30.47R
WOLF CREEK PAS FAIR      41  21  45 MISG      30.64R
$$

COZ009-010-012-014-032>034-037-058>063-280600-
...CENTRAL COLORADO...

CITY           SKY/WX    TMP DP  RH WIND       PRES   REMARKS
ASPEN          FAIR      50  31  48 S8        30.36R
BUENA VISTA    FAIR      49  26  40 W6        30.38R
COPPER MTN     FAIR      48  18  29 CALM      30.64S
BERTHOUD PASS  FAIR      37  27  65 E16       30.67R
COTTONWOOD PAS FAIR      55  21  26 CALM      30.50R
GUNNISON       FAIR      49  34  56 NE5       30.36R
KREMMLING      FAIR      50  23  34 CALM      30.36R
LEADVILLE      FAIR      43  21  41 N5        30.48R
SALIDA         FAIR      55  30  39 SW8       30.42R
SUNLIGHT       FAIR      50  32  50 CALM      30.57S
WILKERSON PASS FAIR      45  19  36 E5        30.62R
$$

COZ069>075-280600-
...SAN LUIS VALLEY/SANGRE DE CRISTO MOUNTAINS...

CITY           SKY/WX    TMP DP  RH WIND       PRES   REMARKS
ALAMOSA        FAIR      43  27  53 SE6       30.32R
LA VETA PASS   FAIR      50  27  40 MISG      30.50S
SAGUACHE       NOT AVBL
$$

COZ035-036-038>040-280600-
...NORTHERN COLORADO FRONT RANGE...

CITY           SKY/WX    TMP DP  RH WIND       PRES   REMARKS
DENVER INTL AP FAIR      56  22  26 SW8       30.21R
DMNS CITY PARK   N/A     59  37  44 S3        30.20S
AURORA         CLEAR     57  26  30 S8        30.23R
FRONT RANGE AP NOT AVBL
ERIE MUNI ARPT FAIR      51  31  45 CALM      30.19R
BOULDER MUN AP FAIR      61  32  33 W3        30.19R
CENTENNIAL     FAIR      54  30  40 S6        30.23R
BROOMFIELD     NOT AVBL
FORT COLLINS   FAIR      61  37  41 N9        30.19R
LONGMONT       FAIR      59  32  35 SW5       30.20R
$$

COZ041-046-047-076>085-087-088-280600-
...PIKES PEAK/PALMER DIVIDE AND SOUTHERN FOOTHILLS...

CITY           SKY/WX    TMP DP  RH WIND       PRES   REMARKS
COLO. SPRINGS  FAIR      55  31  39 N9        30.26R
A. F. ACADEMY  FAIR      50  31  47 N8        30.28R
SCHRIEVER AFB  NOT AVBL
ELLICOTT       NOT AVBL
FALCON         FAIR      51  31  46 W6        30.31R
FORT CARSON    FAIR      57  32  38 NW8       30.22R
LIMON          FAIR      50  24  36 CALM      30.20R
MONUMENT HILL  FAIR      48  28  46 CALM      30.32S
TRINIDAD       FAIR      59  32  36 W12       30.19S
$$

COZ042>045-048>051-090-091-280600-
...NORTHEAST COLORADO...

CITY           SKY/WX    TMP DP  RH WIND       PRES   REMARKS
GREELEY ARPT   FAIR      54  37  54 NW8       30.18R
AKRON          FAIR      62  24  23 NE7       30.16R
BURLINGTON     FAIR      56  39  53 SW7       30.12R
WRAY           NOT AVBL
STERLING       FAIR      52  36  54 CALM      30.11R
HOLYOKE        FAIR      54  36  50 W8        30.10R
FORT MORGAN    FAIR      58  26  28 N8        30.16R
$$

COZ086-089-092>099-280600-
...SOUTHEAST COLORADO...

CITY           SKY/WX    TMP DP  RH WIND       PRES   REMARKS
PUEBLO         FAIR      59  30  33 N8        30.14R
LA JUNTA       FAIR      66  35  31 S7        30.10R
LAMAR          FAIR      54  34  46 SW7       30.06R
SPRINGFIELD    NOT AVBL
$$




USA.gov is the U.S. government's official web portal to all federal, state and local government web resources and services.